• In Lithuania
  • List of Countries
  • For 7 days
  • Water Temperature
  • Satellite Maps
  • Weather Map
  • Weather Widgets
  • user-avatar
    Login

    Hourly Weather Koudougou

    Today, 19 June, Tuesday

    Time Temperature Precipitation Wind Pressure Humidity
    00:00 +32°C° 8.6 mm 5 mps 732 mmHg 69%
    01:00 +30°C° 12.7 mm 5 mps 732 mmHg 72%
    02:00 +29°C° 12.7 mm 5 mps 732 mmHg 75%
    03:00 +29°C° 12.7 mm 5 mps 733 mmHg 78%
    04:00 +28°C° 3.6 mm 5 mps 733 mmHg 77%
    05:00 +28°C° 3.6 mm 6 mps 733 mmHg 76%
    06:00 +28°C° 3.6 mm 7 mps 733 mmHg 74%
    07:00 +29°C° 0 mm 6 mps 733 mmHg 71%
    08:00 +30°C° 0 mm 6 mps 733 mmHg 67%
    09:00 +30°C° 0 mm 6 mps 733 mmHg 64%
    10:00 +33°C° 0 mm 6 mps 733 mmHg 58%
    11:00 +34°C° 0 mm 6 mps 733 mmHg 52%
    12:00 +36°C° 0 mm 6 mps 733 mmHg 47%
    13:00 +36°C° 0 mm 5 mps 732 mmHg 44%
    14:00 +37°C° 0 mm 5 mps 731 mmHg 41%
    15:00 +39°C° 0 mm 5 mps 731 mmHg 39%
    16:00 +37°C° 0 mm 4 mps 731 mmHg 40%
    17:00 +37°C° 0 mm 3 mps 730 mmHg 41%
    18:00 +37°C° 0 mm 3 mps 730 mmHg 42%
    19:00 +36°C° 0 mm 3 mps 731 mmHg 44%
    20:00 +36°C° 0 mm 3 mps 731 mmHg 46%
    21:00 +35°C° 0 mm 3 mps 732 mmHg 48%
    22:00 +35°C° 0 mm 3 mps 732 mmHg 50%
    23:00 +34°C° 0 mm 4 mps 732 mmHg 51%

    Tomorrow, 20 June, Wednesday

    Time Temperature Precipitation Wind Pressure Humidity
    00:00 +34°C° 0 mm 5 mps 732 mmHg 53%
    01:00 +33°C° 0 mm 6 mps 732 mmHg 55%
    02:00 +33°C° 0 mm 6 mps 731 mmHg 58%
    03:00 +32°C° 0 mm 7 mps 731 mmHg 60%
    04:00 +32°C° 0 mm 7 mps 731 mmHg 62%
    05:00 +30°C° 0 mm 7 mps 731 mmHg 63%
    06:00 +30°C° 0 mm 6 mps 731 mmHg 65%
    07:00 +30°C° 0 mm 6 mps 732 mmHg 63%
    08:00 +32°C° 0 mm 6 mps 732 mmHg 61%
    09:00 +33°C° 0 mm 7 mps 733 mmHg 59%
    10:00 +34°C° 0 mm 6 mps 733 mmHg 53%
    11:00 +36°C° 0 mm 6 mps 733 mmHg 48%
    12:00 +39°C° 0 mm 6 mps 732 mmHg 42%
    13:00 +40°C° 0 mm 6 mps 732 mmHg 39%
    14:00 +41°C° 0 mm 6 mps 731 mmHg 36%
    15:00 +41°C° 0 mm 5 mps 730 mmHg 33%
    16:00 +41°C° 0 mm 5 mps 730 mmHg 34%
    17:00 +41°C° 0 mm 4 mps 730 mmHg 35%
    18:00 +40°C° 0 mm 4 mps 730 mmHg 35%
    19:00 +38°C° 0.2 mm 4 mps 731 mmHg 39%
    20:00 +37°C° 0.2 mm 4 mps 732 mmHg 42%
    21:00 +36°C° 0.2 mm 4 mps 732 mmHg 45%
    22:00 +35°C° 0.3 mm 5 mps 732 mmHg 48%
    23:00 +34°C° 0.3 mm 5 mps 732 mmHg 51%

    Day after tomorrow, 21 June, Thursday

    Time Temperature Precipitation Wind Pressure Humidity
    00:00 +33°C° 0.3 mm 6 mps 732 mmHg 54%
    01:00 +33°C° 0.6 mm 7 mps 732 mmHg 57%
    02:00 +32°C° 0.6 mm 8 mps 732 mmHg 61%
    03:00 +31°C° 0.6 mm 9 mps 732 mmHg 64%
    04:00 +31°C° 0 mm 8 mps 732 mmHg 65%
    05:00 +30°C° 0 mm 7 mps 732 mmHg 66%
    06:00 +29°C° 0 mm 7 mps 731 mmHg 67%
    07:00 +30°C° 0 mm 6 mps 732 mmHg 64%
    08:00 +32°C° 0 mm 6 mps 733 mmHg 62%
    09:00 +32°C° 0 mm 6 mps 734 mmHg 60%
    10:00 +33°C° 0 mm 6 mps 733 mmHg 56%
    11:00 +35°C° 0 mm 6 mps 733 mmHg 51%
    12:00 +36°C° 0 mm 6 mps 733 mmHg 47%
    13:00 +36°C° 0 mm 6 mps 732 mmHg 45%
    14:00 +38°C° 0 mm 6 mps 731 mmHg 43%
    15:00 +39°C° 0 mm 5 mps 731 mmHg 41%
    16:00 +39°C° 0 mm 5 mps 731 mmHg 41%
    17:00 +38°C° 0 mm 4 mps 731 mmHg 41%
    18:00 +38°C° 0 mm 4 mps 731 mmHg 41%
    19:00 +36°C° 0.7 mm 4 mps 731 mmHg 46%
    20:00 +35°C° 0.7 mm 5 mps 732 mmHg 51%
    21:00 +34°C° 0.7 mm 5 mps 732 mmHg 56%
    22:00 +33°C° 0.6 mm 6 mps 732 mmHg 60%
    23:00 +32°C° 0.6 mm 7 mps 732 mmHg 64%

    22 June, Friday

    Time Temperature Precipitation Wind Pressure Humidity
    00:00 +31°C° 0.6 mm 8 mps 732 mmHg 68%
    01:00 +29°C° 0.5 mm 8 mps 732 mmHg 69%
    02:00 +29°C° 0.5 mm 9 mps 732 mmHg 71%
    03:00 +29°C° 0.5 mm 9 mps 731 mmHg 72%
    04:00 +28°C° 10.5 mm 9 mps 732 mmHg 74%
    05:00 +27°C° 10.5 mm 8 mps 732 mmHg 77%
    06:00 +27°C° 10.5 mm 8 mps 732 mmHg 79%
    07:00 +27°C° 0.2 mm 7 mps 733 mmHg 76%
    08:00 +28°C° 0.2 mm 6 mps 733 mmHg 74%
    09:00 +28°C° 0.2 mm 5 mps 734 mmHg 71%
    10:00 +30°C° 0 mm 4 mps 734 mmHg 65%
    11:00 +31°C° 0 mm 3 mps 734 mmHg 59%
    12:00 +32°C° 0 mm 1 mps 734 mmHg 53%
    13:00 +32°C° 0 mm 1 mps 733 mmHg 51%
    14:00 +33°C° 0 mm 1 mps 732 mmHg 48%
    15:00 +33°C° 0 mm 1 mps 731 mmHg 46%
    16:00 +33°C° 0 mm 1 mps 731 mmHg 47%
    17:00 +34°C° 0 mm 2 mps 731 mmHg 48%
    18:00 +34°C° 0 mm 2 mps 731 mmHg 49%
    19:00 +32°C° 0 mm 2 mps 732 mmHg 51%
    20:00 +32°C° 0 mm 2 mps 732 mmHg 53%
    21:00 +31°C° 0 mm 2 mps 733 mmHg 55%
    22:00 +31°C° 0 mm 2 mps 733 mmHg 58%
    23:00 +31°C° 0 mm 3 mps 733 mmHg 60%

    23 June, Saturday

    Time Temperature Precipitation Wind Pressure Humidity
    00:00 +30°C° 0 mm 3 mps 733 mmHg 62%
    01:00 +29°C° 0.4 mm 4 mps 733 mmHg 65%
    02:00 +29°C° 0.4 mm 4 mps 733 mmHg 69%
    03:00 +28°C° 0.4 mm 4 mps 732 mmHg 72%
    04:00 +28°C° 0.4 mm 4 mps 733 mmHg 73%
    05:00 +28°C° 0.4 mm 5 mps 733 mmHg 75%
    06:00 +27°C° 0.4 mm 5 mps 733 mmHg 77%
    07:00 +28°C° 0 mm 5 mps 734 mmHg 75%
    08:00 +28°C° 0 mm 5 mps 734 mmHg 73%
    09:00 +29°C° 0 mm 5 mps 735 mmHg 72%
    10:00 +29°C° 0.1 mm 5 mps 734 mmHg 70%
    11:00 +29°C° 0.1 mm 4 mps 734 mmHg 67%
    12:00 +30°C° 0.1 mm 4 mps 734 mmHg 65%
    13:00 +30°C° 0 mm 4 mps 733 mmHg 63%
    14:00 +31°C° 0 mm 3 mps 733 mmHg 60%
    15:00 +31°C° 0 mm 3 mps 732 mmHg 57%
    16:00 +31°C° 0 mm 3 mps 732 mmHg 58%
    17:00 +31°C° 0 mm 3 mps 732 mmHg 58%
    18:00 +31°C° 0 mm 2 mps 732 mmHg 58%
    19:00 +31°C° 0 mm 2 mps 733 mmHg 61%
    20:00 +30°C° 0 mm 2 mps 733 mmHg 64%
    21:00 +30°C° 0 mm 2 mps 734 mmHg 66%
    22:00 +29°C° 0 mm 2 mps 734 mmHg 68%
    23:00 +29°C° 0 mm 2 mps 734 mmHg 69%

    24 June, Sunday

    Time Temperature Precipitation Wind Pressure Humidity
    00:00 +29°C° 0 mm 2 mps 734 mmHg 70%
    01:00 +28°C° 0.1 mm 2 mps 733 mmHg 71%
    02:00 +28°C° 0.1 mm 3 mps 733 mmHg 72%
    03:00 +28°C° 0.1 mm 3 mps 733 mmHg 73%
    04:00 +27°C° 0 mm 3 mps 733 mmHg 75%
    05:00 +27°C° 0 mm 3 mps 733 mmHg 76%
    06:00 +27°C° 0 mm 3 mps 734 mmHg 77%
    07:00 +28°C° 0 mm 4 mps 734 mmHg 73%
    08:00 +29°C° 0 mm 4 mps 734 mmHg 69%
    09:00 +30°C° 0 mm 5 mps 734 mmHg 65%
    10:00 +32°C° 0 mm 5 mps 734 mmHg 60%
    11:00 +33°C° 0 mm 4 mps 734 mmHg 55%
    12:00 +34°C° 0 mm 4 mps 733 mmHg 50%
    13:00 +35°C° 0 mm 3 mps 733 mmHg 48%
    14:00 +35°C° 0 mm 3 mps 732 mmHg 45%
    15:00 +36°C° 0 mm 2 mps 732 mmHg 43%
    16:00 +36°C° 0 mm 2 mps 732 mmHg 44%
    17:00 +36°C° 0 mm 2 mps 732 mmHg 44%
    18:00 +34°C° 0 mm 1 mps 732 mmHg 45%
    19:00 +35°C° 0 mm 2 mps 732 mmHg 47%
    20:00 +34°C° 0 mm 2 mps 732 mmHg 50%
    21:00 +32°C° 0 mm 2 mps 733 mmHg 52%
    22:00 +32°C° 0 mm 2 mps 732 mmHg 53%
    23:00 +32°C° 0 mm 2 mps 732 mmHg 54%
    Show more